Volver al catálogo

JILIN-1 GAOFEN 03D-48

ActivoCienciaSSO
NORAD 54695·PAYLOAD·🇨🇳 China
Este nombre de satélite aún no ha sido confirmado por fuentes oficiales.

Lanzado Dec 9, 2022 desde Yellow Sea Launch Area

Loading…

Próximos Pases (próximas 24 horas)

TLE

ActualizadoSource: Space-Track

Época: Sep 14, 2026, 15:22 UTC

1 54695U 22167P   26257.64028310  .00009015  00000-0  25237-3 0  9990
2 54695  97.6952  71.1329 0006679 148.4626 211.7019 15.36866873209129

Sigue JILIN-1 GAOFEN 03D-48 en tiempo real con AllMySat

Download on the App Store